| time (UTC) | temp C | wind direction | speed KPH | gust KPH | rain 1hr cm | rain 24hr cm | rain mn cm | humidity % | barometer mb |
| 20260502130330 | 23 | 318 | 4.8 | 11.3 | 0.00 | 0.00 | 0.00 | 41 | 965.2 |
| 20260502123329 | 23 | 306 | 4.8 | 12.9 | 0.00 | 0.00 | 0.00 | 42 | 965.5 |
| 20260502120330 | 23 | 292 | 1.6 | 4.8 | 0.00 | 0.00 | 0.00 | 43 | 965.8 |
| 20260502113331 | 23 | 286 | 3.2 | 8.0 | 0.00 | 0.00 | 0.00 | 43 | 966.0 |
| 20260502110329 | 22 | 270 | 4.8 | 9.7 | 0.00 | 0.00 | 0.00 | 42 | 966.5 |
| 20260502103329 | 22 | 272 | 3.2 | 8.0 | 0.00 | 0.00 | 0.00 | 41 | 966.8 |
| 20260502100329 | 22 | 5 | 0.0 | 3.2 | 0.00 | 0.00 | 0.00 | 39 | 967.3 |
| 20260502090331 | 20 | 264 | 4.8 | 8.0 | 0.00 | 0.00 | 0.00 | 43 | 967.8 |
| 20260502070330 | 18 | 68 | 0.0 | 0.0 | 0.00 | 0.00 | 0.00 | 48 | 968.2 |
| 20260502063329 | 17 | 68 | 0.0 | 1.6 | 0.00 | 0.00 | 0.00 | 52 | 968.3 |
| 20260502060331 | 15 | 68 | 1.6 | 3.2 | 0.00 | 0.00 | 0.00 | 58 | 967.9 |
| 20260502053330 | 13 | 68 | 0.0 | 3.2 | 0.00 | 0.00 | 0.00 | 54 | 967.9 |
| 20260502050329 | 12 | 79 | 0.0 | 1.6 | 0.00 | 0.00 | 0.00 | 56 | 967.9 |
| 20260502043329 | 11 | 68 | 0.0 | 0.0 | 0.00 | 0.00 | 0.00 | 57 | 967.7 |
| 20260502040330 | 11 | 68 | 1.6 | 1.6 | 0.00 | 0.00 | 0.00 | 56 | 967.9 |
| 20260502033330 | 11 | 90 | 0.0 | 1.6 | 0.00 | 0.00 | 0.00 | 56 | 967.8 |
| 20260502030329 | 12 | 90 | 0.0 | 1.6 | 0.00 | 0.00 | 0.00 | 54 | 967.9 |
| 20260502023331 | 12 | 68 | 0.0 | 0.0 | 0.00 | 0.00 | 0.00 | 53 | 968.0 |
| 20260502020330 | 15 | 90 | 0.0 | 4.8 | 0.00 | 0.00 | 0.00 | 46 | 968.0 |
| 20260502013329 | 15 | 90 | 3.2 | 12.9 | 0.00 | 0.00 | 0.00 | 43 | 968.1 |
| 20260502010331 | 15 | 93 | 1.6 | 8.0 | 0.00 | 0.00 | 0.00 | 43 | 968.3 |
| 20260502003331 | 15 | 93 | 8.0 | 14.5 | 0.00 | 0.00 | 0.00 | 44 | 968.4 |
| 20260502000332 | 15 | 68 | 3.2 | 14.5 | 0.00 | 0.00 | 0.00 | 44 | 968.6 |
| 20260501233331 | 16 | 100 | 9.7 | 20.9 | 0.00 | 0.00 | 0.00 | 41 | 968.6 |
| 20260501230330 | 15 | 110 | 1.6 | 9.7 | 0.00 | 0.00 | 0.00 | 43 | 968.7 |
| 20260501223330 | 15 | 68 | 4.8 | 12.9 | 0.00 | 0.00 | 0.00 | 42 | 968.7 |
| 20260501220330 | 16 | 85 | 9.7 | 16.1 | 0.00 | 0.00 | 0.00 | 42 | 968.8 |
| 20260501213331 | 16 | 68 | 4.8 | 9.7 | 0.00 | 0.00 | 0.00 | 42 | 968.8 |
| 20260501210330 | 15 | 90 | 8.0 | 11.3 | 0.00 | 0.00 | 0.00 | 47 | 968.7 |
| 20260501203329 | 15 | 68 | 8.0 | 11.3 | 0.00 | 0.00 | 0.00 | 45 | 968.9 |
| 20260501200331 | 15 | 68 | 8.0 | 14.5 | 0.00 | 0.00 | 0.00 | 43 | 968.6 |
| 20260501193329 | 15 | 90 | 4.8 | 11.3 | 0.00 | 0.00 | 0.00 | 42 | 968.3 |
| 20260501190331 | 16 | 90 | 3.2 | 11.3 | 0.00 | 0.00 | 0.00 | 40 | 968.3 |
| 20260501183331 | 18 | 68 | 0.0 | 0.0 | 0.00 | 0.00 | 0.00 | 36 | 968.2 |
| 20260501180329 | 20 | 77 | 1.6 | 4.8 | 0.00 | 0.00 | 0.00 | 30 | 967.7 |
| 20260501173330 | 22 | 68 | 1.6 | 14.5 | 0.00 | 0.00 | 0.00 | 26 | 967.7 |
| 20260501170330 | 22 | 90 | 4.8 | 9.7 | 0.00 | 0.00 | 0.00 | 26 | 967.6 |
| 20260501163330 | 22 | 72 | 4.8 | 9.7 | 0.00 | 0.00 | 0.00 | 25 | 967.9 |
| 20260501160328 | 22 | 90 | 8.0 | 14.5 | 0.00 | 0.00 | 0.00 | 25 | 968.1 |
| 20260501153331 | 23 | 84 | 4.8 | 14.5 | 0.00 | 0.00 | 0.00 | 23 | 968.1 |
| 20260501150329 | 23 | 89 | 4.8 | 12.9 | 0.00 | 0.00 | 0.00 | 22 | 968.3 |
| 20260501143330 | 23 | 248 | 1.6 | 1.6 | 0.00 | 0.00 | 0.00 | 29 | 968.5 |
| 20260501140330 | 23 | 300 | 1.6 | 4.8 | 0.00 | 0.00 | 0.00 | 28 | 968.8 |
| 20260501133329 | 22 | 68 | 4.8 | 11.3 | 0.00 | 0.00 | 0.00 | 25 | 969.0 |